Weather History for Monument Pass, CO

Change the Weather History Date:

Thursday, February 7, 2013

  Actual Average (KAPA) Record (KAPA)
Temperature  
Mean Temperature 28 °F -  
Max Temperature 41 °F 42 °F 64 °F (1999)
Min Temperature 14 °F 18 °F -8 °F (2014)
Degree Days  
Heating Degree Days 38    
Moisture  
Dew Point 22 °F    
Average Humidity 77    
Maximum Humidity 100    
Minimum Humidity 45    
Precipitation  
Precipitation 0.02 in - - ()
Sea Level Pressure  
Sea Level Pressure 30.09 in    
Wind  
Wind Speed 8 mph (SSW)    
Max Wind Speed 20 mph    
Max Gust Speed 25 mph    
Visibility 9 miles    
Events Fog , Snow    
Averages and records for this station are not official NWS values.
T = Trace of Precipitation, MM = Missing Value Source: NWS Daily Summary

Daily Weather History Graph

Daily Weather History Graph

Search for Another Location

Airport:

Trip Planner

Search our weather history database for the weather conditions in past years. The results will help you decide how hot, cold, wet, or windy it might be!

Date:

Astronomy

Feb. 07, 2013 Rise Set
Actual Time 6:59 AM MST 5:26 PM MST
Civil Twilight 6:31 AM MST 5:54 PM MST
Nautical Twilight 5:59 AM MST 6:26 PM MST
Astronomical Twilight 5:28 AM MST 6:57 PM MST
Moon 4:40 AM MST (2/7) 2:54 PM MST (2/7)
Length of Visible Light 11h 23m
Length of Day
10h 27m
Waning Crescent, 8% of the Moon is Illuminated
Feb 7
Waning Crescent
Feb 10
New
Feb 17
First Quarter
Feb 25
Full
Mar 4
Last Quarter

Hourly Weather History & Observations

Time (MST) Temp. Windchill Dew Point Humidity Pressure Visibility Wind Dir Wind Speed Gust Speed Precip Events Conditions
12:15 AM 26.6 °F 19.1 °F 26.6 °F 100% 30.04 in 4.0 mi North 6.9 mph - N/A Snow Light Snow
12:34 AM 26.6 °F 19.1 °F 26.6 °F 100% 30.05 in 10.0 mi North 6.9 mph - N/A   Overcast
12:55 AM 26.6 °F 18.2 °F 26.6 °F 100% 30.05 in 10.0 mi North 8.1 mph - N/A   Overcast
1:15 AM 26.6 °F 19.1 °F 26.6 °F 100% 30.05 in 10.0 mi NW 6.9 mph - N/A   Overcast
1:35 AM 28.4 °F 20.4 °F 26.6 °F 93% 30.05 in 10.0 mi NNW 8.1 mph - N/A   Overcast
1:55 AM 28.4 °F 21.2 °F 26.6 °F 93% 30.06 in 10.0 mi NNW 6.9 mph - N/A   Overcast
2:15 AM 28.4 °F 19.1 °F 26.6 °F 93% 30.07 in 5.0 mi North 10.4 mph - N/A   Overcast
2:34 AM 28.4 °F 19.1 °F 28.4 °F 100% 30.07 in 5.0 mi NNW 10.4 mph - N/A   Overcast
2:54 AM 26.6 °F 18.2 °F 26.6 °F 100% 30.07 in 7.0 mi North 8.1 mph - N/A   Overcast
3:15 AM 23.0 °F 13.1 °F 23.0 °F 100% 30.07 in 10.0 mi North 9.2 mph - N/A   Mostly Cloudy
3:35 AM 21.2 °F 12.6 °F 21.2 °F 100% 30.07 in 10.0 mi North 6.9 mph - N/A   Clear
3:55 AM 21.2 °F 12.6 °F 19.4 °F 93% 30.08 in 1.5 mi NNW 6.9 mph - N/A   Mist
4:14 AM 17.6 °F 8.2 °F 17.6 °F 100% 30.08 in 0.2 mi WNW 6.9 mph - N/A Fog Light Freezing Fog
4:35 AM 19.4 °F 14.3 °F 17.6 °F 93% 30.08 in 0.2 mi West 3.5 mph - N/A Snow Light Snow
4:55 AM 17.6 °F 12.3 °F 17.6 °F 100% 30.08 in 0.2 mi West 3.5 mph - N/A Fog Light Freezing Fog
5:15 AM 17.6 °F 10.7 °F 15.8 °F 93% 30.08 in 0.2 mi WSW 4.6 mph - N/A Fog Light Freezing Fog
5:35 AM 15.8 °F 8.6 °F 14.0 °F 93% 30.09 in 0.2 mi SW 4.6 mph - N/A Fog Light Freezing Fog
5:55 AM 17.6 °F 12.3 °F 15.8 °F 93% 30.09 in 0.2 mi SW 3.5 mph - N/A Fog Light Freezing Fog
6:15 AM 14.0 °F 6.5 °F 12.2 °F 93% 30.09 in 0.8 mi SW 4.6 mph - N/A   Mist
6:35 AM 15.8 °F 7.2 °F 14.0 °F 93% 30.10 in 5.0 mi WSW 5.8 mph - N/A   Clear
6:55 AM 14.0 °F 6.5 °F 12.2 °F 93% 30.10 in 7.0 mi WSW 4.6 mph - N/A   Clear
7:14 AM 15.8 °F 8.6 °F 14.0 °F 93% 30.10 in 10.0 mi WSW 4.6 mph - N/A   Clear
7:35 AM 19.4 °F 10.4 °F 17.6 °F 93% 30.11 in 10.0 mi WSW 6.9 mph - N/A   Clear
7:54 AM 17.6 °F 8.2 °F 15.8 °F 93% 30.12 in 10.0 mi WSW 6.9 mph - N/A   Clear
8:14 AM 21.2 °F 16.4 °F 19.4 °F 93% 30.13 in 10.0 mi SW 3.5 mph - N/A   Clear
8:35 AM 21.2 °F 12.6 °F 19.4 °F 93% 30.13 in 10.0 mi SW 6.9 mph - N/A   Clear
8:53 AM 23.0 °F 14.7 °F 19.4 °F 86% 30.14 in 10.0 mi SW 6.9 mph - N/A   Clear
9:14 AM 26.6 °F 20.0 °F 21.2 °F 80% 30.14 in 10.0 mi SSW 5.8 mph - N/A   Clear
9:34 AM 28.4 °F 23.3 °F 23.0 °F 80% 30.14 in 10.0 mi SSW 4.6 mph - N/A   Clear
9:54 AM 30.2 °F 26.7 °F 24.8 °F 80% 30.14 in 10.0 mi SSW 3.5 mph - N/A   Clear
10:14 AM 32.0 °F 27.5 °F 24.8 °F 75% 30.15 in 10.0 mi SSW 4.6 mph - N/A   Clear
10:34 AM 32.0 °F 28.7 °F 26.6 °F 80% 30.15 in 10.0 mi South 3.5 mph - N/A   Clear
10:54 AM 32.0 °F 27.5 °F 21.2 °F 64% 30.15 in 10.0 mi SSE 4.6 mph - 0.01 in   Clear
11:13 AM 32.0 °F 27.5 °F 23.0 °F 69% 30.15 in 10.0 mi SSE 4.6 mph - 0.01 in   Clear
11:33 AM 33.8 °F 29.6 °F 23.0 °F 65% 30.15 in 10.0 mi SSE 4.6 mph - 0.01 in   Clear
11:53 AM 35.6 °F 31.7 °F 23.0 °F 60% 30.14 in 10.0 mi SSE 4.6 mph - 0.01 in   Clear
12:13 PM 35.6 °F 30.7 °F 23.0 °F 60% 30.13 in 10.0 mi SSE 5.8 mph - N/A   Clear
12:35 PM 35.6 °F 29.9 °F 23.0 °F 60% 30.12 in 10.0 mi SSE 6.9 mph - N/A   Clear
12:54 PM 37.4 °F 31.4 °F 24.8 °F 60% 30.11 in 10.0 mi South 8.1 mph - N/A   Clear
1:14 PM 37.4 °F 30.8 °F 26.6 °F 65% 30.11 in 10.0 mi South 9.2 mph - N/A   Clear
1:33 PM 37.4 °F 31.4 °F 19.4 °F 48% 30.10 in 10.0 mi South 8.1 mph - N/A   Clear
1:55 PM 39.2 °F 33.6 °F 23.0 °F 52% 30.09 in 10.0 mi South 8.1 mph - N/A   Clear
2:14 PM 41.0 °F 35.8 °F 21.2 °F 45% 30.08 in 10.0 mi South 8.1 mph - N/A   Clear
2:35 PM 39.2 °F 34.2 °F 21.2 °F 49% 30.08 in 10.0 mi South 6.9 mph - N/A   Clear
2:55 PM 41.0 °F 35.8 °F 23.0 °F 49% 30.08 in 10.0 mi South 8.1 mph - N/A   Clear
3:15 PM 41.0 °F 35.8 °F 23.0 °F 49% 30.08 in 10.0 mi South 8.1 mph - N/A   Clear
3:35 PM 41.0 °F 35.2 °F 23.0 °F 49% 30.07 in 10.0 mi SSE 9.2 mph - N/A   Clear
3:55 PM 39.2 °F 33.0 °F 23.0 °F 52% 30.07 in 10.0 mi SSE 9.2 mph - N/A   Clear
4:15 PM 37.4 °F 29.8 °F 24.8 °F 60% 30.07 in 10.0 mi South 11.5 mph - N/A   Clear
4:35 PM 37.4 °F 29.3 °F 26.6 °F 65% 30.07 in 10.0 mi South 12.7 mph - N/A   Clear
4:55 PM 35.6 °F 27.1 °F 26.6 °F 70% 30.07 in 10.0 mi South 12.7 mph - N/A   Clear
5:15 PM 32.0 °F 23.0 °F 24.8 °F 75% 30.08 in 10.0 mi South 11.5 mph - N/A   Clear
5:35 PM 32.0 °F 23.6 °F 24.8 °F 75% 30.08 in 10.0 mi South 10.4 mph - N/A   Clear
5:55 PM 30.2 °F 20.8 °F 24.8 °F 80% 30.08 in 10.0 mi South 11.5 mph - N/A   Clear
6:13 PM 30.2 °F 21.3 °F 23.0 °F 75% 30.08 in 10.0 mi South 10.4 mph - N/A   Clear
6:35 PM 28.4 °F 18.5 °F 23.0 °F 80% 30.08 in 10.0 mi South 11.5 mph - N/A   Clear
6:54 PM 28.4 °F 19.1 °F 23.0 °F 80% 30.08 in 10.0 mi South 10.4 mph - N/A   Clear
7:14 PM 28.4 °F 16.6 °F 21.2 °F 74% 30.07 in 10.0 mi South 16.1 mph 20.7 mph N/A   Clear
7:34 PM 30.2 °F 18.9 °F 21.2 °F 69% 30.07 in 10.0 mi South 16.1 mph - N/A   Clear
7:53 PM 28.4 °F 15.8 °F 21.2 °F 74% 30.07 in 10.0 mi South 18.4 mph - N/A   Clear
8:14 PM 28.4 °F 15.8 °F 21.2 °F 74% 30.07 in 10.0 mi South 18.4 mph - N/A   Clear
8:34 PM 28.4 °F 16.6 °F 21.2 °F 74% 30.07 in 10.0 mi South 16.1 mph - N/A   Clear
8:54 PM 28.4 °F 16.2 °F 21.2 °F 74% 30.06 in 10.0 mi South 17.3 mph - N/A   Clear
9:14 PM 28.4 °F 16.6 °F 19.4 °F 69% 30.06 in 10.0 mi South 16.1 mph - N/A   Clear
9:34 PM 28.4 °F 16.6 °F 19.4 °F 69% 30.06 in 10.0 mi South 16.1 mph - N/A   Clear
9:54 PM 28.4 °F 15.8 °F 19.4 °F 69% 30.06 in 10.0 mi South 18.4 mph - N/A   Clear
10:14 PM 28.4 °F 16.6 °F 19.4 °F 69% 30.05 in 10.0 mi South 16.1 mph - N/A   Clear
10:34 PM 28.4 °F 15.8 °F 17.6 °F 64% 30.05 in 10.0 mi South 18.4 mph - N/A   Clear
10:54 PM 28.4 °F 15.4 °F 19.4 °F 69% 30.05 in 10.0 mi South 19.6 mph - N/A   Clear
11:13 PM 28.4 °F 15.4 °F 17.6 °F 64% 30.05 in 10.0 mi South 19.6 mph - N/A   Clear
11:33 PM 28.4 °F 15.8 °F 19.4 °F 69% 30.05 in 10.0 mi South 18.4 mph - N/A   Clear
11:55 PM 28.4 °F 15.8 °F 19.4 °F 69% 30.04 in 10.0 mi South 18.4 mph 25.3 mph N/A   Clear